Total_Precipitation_Accumulation
0.06 0.17 0.36 0.52 0.88 1.29 1.20 0.70 0.45 0.43 0.48 0.45 0.54 0.54 0.53 0.55 0.76 1.28 0.81 0.58 0.47 0.46 0.42 0.48 0.59 0.59 0.68 0.74 0.79 0.86 0.83 0.82 0.85 0.86 0.84 0.90 0.91 0.85 0.79 0.80 0.88 0.95 0.97 0.92 0.93 0.94 0.90 0.88 0.90
0.08 0.17 0.32 0.59 1.16 1.60 1.25 0.60 0.39 0.43 0.44 0.42 0.46 0.55 0.63 0.45 0.33 0.40 0.52 0.43 0.28 0.26 0.29 0.33 0.48 0.53 0.58 0.67 0.74 0.82 0.80 0.79 0.82 0.82 0.82 0.80 0.82 0.84 0.84 0.87 0.93 0.92 0.89 0.82 0.82 0.79 0.73 0.74 0.80
0.10 0.16 0.29 0.65 0.95 1.14 0.87 0.43 0.37 0.34 0.44 0.50 0.52 0.50 0.57 0.42 0.30 0.30 0.37 0.27 0.18 0.16 0.22 0.34 0.43 0.49 0.58 0.60 0.67 0.77 0.72 0.74 0.76 0.75 0.77 0.78 0.78 0.82 0.87 0.89 0.89 0.81 0.79 0.77 0.73 0.65 0.62 0.63 0.71
0.10 0.16 0.32 0.54 0.54 0.53 0.46 0.33 0.30 0.30 0.42 0.49 0.58 0.60 0.51 0.38 0.34 0.33 0.26 0.20 0.12 0.14 0.17 0.28 0.38 0.37 0.39 0.47 0.57 0.66 0.68 0.71 0.71 0.68 0.73 0.75 0.72 0.76 0.77 0.74 0.74 0.73 0.72 0.70 0.66 0.58 0.61 0.66 0.75
0.11 0.20 0.46 0.50 0.42 0.44 0.40 0.31 0.29 0.26 0.37 0.51 0.52 0.65 0.66 0.50 0.34 0.27 0.22 0.23 0.16 0.15 0.16 0.23 0.35 0.37 0.40 0.45 0.52 0.58 0.65 0.64 0.63 0.65 0.65 0.67 0.67 0.69 0.70 0.61 0.61 0.69 0.69 0.63 0.58 0.58 0.63 0.68 0.74
0.11 0.25 0.42 0.37 0.33 0.31 0.29 0.25 0.28 0.29 0.38 0.60 0.51 0.62 0.85 0.69 0.45 0.35 0.26 0.26 0.22 0.18 0.14 0.20 0.32 0.37 0.41 0.42 0.46 0.53 0.53 0.55 0.61 0.60 0.54 0.53 0.55 0.57 0.60 0.58 0.61 0.65 0.65 0.58 0.54 0.62 0.65 0.66 0.69
0.09 0.19 0.26 0.26 0.23 0.26 0.25 0.25 0.27 0.26 0.44 0.72 0.56 0.73 1.08 1.05 0.66 0.49 0.48 0.37 0.33 0.29 0.26 0.24 0.29 0.34 0.40 0.46 0.47 0.50 0.49 0.48 0.51 0.51 0.50 0.50 0.49 0.48 0.51 0.62 0.66 0.61 0.57 0.55 0.51 0.52 0.53 0.53 0.57
0.05 0.08 0.14 0.18 0.18 0.19 0.17 0.19 0.21 0.35 0.47 0.60 0.50 0.73 1.24 1.17 0.77 0.69 0.75 0.66 0.69 0.64 0.49 0.34 0.32 0.39 0.40 0.39 0.51 0.58 0.54 0.51 0.50 0.51 0.52 0.53 0.51 0.50 0.54 0.60 0.68 0.68 0.62 0.58 0.53 0.49 0.48 0.55 0.62
0.04 0.08 0.14 0.14 0.14 0.13 0.13 0.14 0.18 0.31 0.46 0.62 0.66 0.72 0.95 0.85 0.83 0.91 1.02 1.08 1.10 1.16 0.97 0.61 0.48 0.50 0.53 0.46 0.48 0.65 0.66 0.59 0.60 0.63 0.64 0.78 0.92 0.82 0.92 0.86 0.94 0.91 0.84 0.79 0.77 0.73 0.71 0.66 0.62
0.05 0.10 0.10 0.07 0.08 0.12 0.11 0.14 0.22 0.36 0.62 0.89 0.91 0.91 1.08 1.01 0.84 0.90 0.98 1.14 1.24 1.35 1.25 0.94 0.79 0.62 0.57 0.51 0.67 0.91 0.88 0.90 0.95 1.04 0.99 1.26 1.45 1.35 1.04 1.17 1.43 1.41 1.37 1.24 1.22 1.22 1.03 0.84 0.81
0.04 0.04 0.05 0.06 0.06 0.08 0.11 0.14 0.21 0.40 0.78 1.21 1.46 1.48 1.34 1.21 1.14 1.11 1.09 1.25 1.45 1.49 1.37 1.14 1.04 0.92 0.76 0.90 0.87 1.02 1.22 1.38 1.23 1.11 1.18 1.54 1.45 1.20 1.21 1.34 1.50 1.72 1.65 1.56 1.69 1.79 1.52 1.45 1.70
0.02 0.02 0.02 0.04 0.04 0.06 0.10 0.13 0.22 0.41 0.76 1.03 1.26 1.54 1.66 1.52 1.56 1.54 1.50 1.71 1.90 1.79 1.63 1.43 1.24 1.12 1.09 1.09 1.06 1.10 1.17 1.36 1.34 1.39 1.39 1.62 1.85 1.77 1.78 1.91 1.87 1.98 2.13 2.41 2.29 2.34 2.15 2.02 1.94
0.02 0.02 0.03 0.04 0.05 0.07 0.09 0.19 0.30 0.47 0.60 0.78 0.94 1.10 1.37 1.72 2.05 2.17 2.27 2.62 2.47 2.29 2.18 1.97 1.63 1.59 1.54 1.59 1.63 1.36 1.37 1.47 1.69 1.84 1.79 1.81 2.02 2.05 2.12 2.16 2.19 2.02 2.14 2.32 2.56 2.46 2.54 2.57 2.34
0.02 0.03 0.04 0.05 0.06 0.08 0.13 0.27 0.32 0.51 0.59 0.70 0.90 1.09 1.63 2.22 2.40 2.67 3.08 3.34 3.19 2.96 2.97 2.75 2.40 2.35 2.26 2.06 1.98 1.88 1.71 1.85 1.93 2.02 2.02 2.01 2.25 2.42 2.37 2.22 2.25 2.13 2.14 2.25 2.48 2.55 2.90 2.88 2.78
0.02 0.05 0.07 0.08 0.09 0.12 0.19 0.39 0.46 0.59 0.67 0.78 1.12 1.32 1.76 2.11 2.39 2.54 3.01 3.33 3.29 3.23 3.40 3.41 3.25 3.23 3.09 2.80 2.49 2.27 2.19 2.11 2.30 2.39 2.31 2.36 2.42 2.59 2.51 2.43 2.25 2.24 2.28 2.44 2.54 2.63 2.90 2.92 2.84
0.05 0.11 0.20 0.16 0.14 0.16 0.27 0.70 0.63 0.66 0.87 1.11 1.35 1.49 1.73 1.90 2.27 2.41 2.78 3.26 3.50 3.50 3.71 3.93 3.89 3.89 3.67 3.42 3.11 2.84 2.62 2.55 2.55 2.52 2.50 2.42 2.56 2.63 2.67 2.46 2.21 2.33 2.30 2.45 2.75 2.86 3.03 3.18 3.18
0.08 0.15 0.27 0.29 0.22 0.18 0.36 0.81 0.82 0.89 1.02 1.14 1.26 1.52 1.67 1.67 2.02 2.45 2.77 3.33 3.74 3.88 4.25 4.61 4.68 4.60 4.25 3.85 3.62 3.51 3.25 3.01 2.81 2.77 2.66 2.58 2.59 2.52 2.63 2.45 2.34 2.41 2.58 2.62 2.46 2.99 3.27 3.32 3.32
0.10 0.10 0.16 0.24 0.23 0.23 0.42 0.61 0.75 0.94 1.10 1.22 1.23 1.36 1.39 1.52 1.99 2.53 2.87 3.24 3.89 4.40 4.98 5.02 4.98 5.23 5.00 4.68 4.41 4.17 3.74 3.36 3.05 2.90 2.78 2.58 2.49 2.41 2.65 2.36 2.33 2.49 2.73 2.77 2.84 3.23 3.33 3.18 3.32
0.08 0.13 0.20 0.25 0.23 0.36 0.55 0.71 0.83 0.95 1.01 1.19 1.29 1.25 1.29 1.59 2.02 2.45 2.86 3.27 3.69 4.25 4.79 5.33 5.43 5.32 5.16 4.86 4.37 3.97 3.56 3.33 3.05 2.82 2.62 2.55 2.50 2.55 2.91 2.58 2.76 2.67 2.70 2.76 2.91 3.16 3.11 2.94 3.29
0.10 0.16 0.25 0.30 0.24 0.35 0.54 0.81 0.97 0.98 0.96 1.04 1.22 1.38 1.41 1.67 2.00 2.44 2.91 3.16 3.35 3.70 4.12 4.50 4.75 4.47 4.15 3.93 3.81 3.65 3.59 3.19 3.04 3.00 3.02 2.75 2.75 2.71 2.68 2.83 2.74 2.77 2.84 2.67 2.76 3.07 2.91 2.55 2.95
0.13 0.15 0.16 0.21 0.23 0.36 0.59 1.01 1.12 0.93 0.88 0.95 1.08 1.36 1.58 1.65 1.93 2.23 2.67 2.89 3.00 3.17 3.30 3.42 3.58 3.65 3.65 3.68 3.77 3.82 3.93 3.60 3.46 3.40 3.31 2.92 2.82 2.75 2.77 2.68 2.58 2.67 2.61 2.55 2.55 2.77 2.86 2.63 2.63
0.16 0.11 0.08 0.11 0.25 0.53 0.66 1.16 1.30 1.07 1.02 1.04 1.08 1.22 1.33 1.51 1.61 1.72 2.04 2.46 2.45 2.47 2.73 3.15 3.32 3.44 3.63 3.87 3.85 3.84 3.75 3.65 3.64 3.75 3.72 3.57 3.29 3.02 2.80 2.62 2.51 2.42 2.32 2.42 2.20 2.46 2.66 2.73 2.40
0.10 0.08 0.08 0.11 0.24 0.44 0.55 0.85 1.13 1.19 1.14 1.04 1.02 1.13 1.20 1.29 1.38 1.47 1.67 2.09 2.17 2.08 2.36 2.86 3.37 3.60 3.77 3.96 4.03 4.24 4.07 3.92 3.80 3.85 3.91 3.68 3.42 3.10 2.76 2.68 2.58 2.47 2.33 2.26 2.21 2.38 2.30 2.36 2.32
0.06 0.10 0.18 0.25 0.44 0.81 0.65 0.71 1.13 1.15 1.00 0.90 0.82 0.87 0.97 0.94 1.02 1.20 1.52 1.95 2.16 2.23 2.48 2.85 3.26 3.57 3.75 3.86 3.90 3.94 3.93 3.89 3.68 3.55 3.30 2.96 2.83 2.71 2.51 2.44 2.39 2.28 2.27 2.27 2.24 2.21 2.17 2.23 2.30
0.09 0.19 0.58 0.91 1.16 1.20 0.64 0.68 1.04 0.89 0.84 0.76 0.83 0.87 0.78 0.78 0.86 0.88 1.00 1.17 1.31 1.50 1.75 1.99 2.29 2.65 2.92 3.11 3.18 3.14 3.33 3.35 3.08 2.83 2.64 2.35 2.13 1.96 1.95 2.04 2.07 2.01 2.05 2.07 2.18 2.08 2.00 2.09 2.22
0.10 0.13 0.39 0.62 0.76 0.87 0.79 1.11 1.12 0.78 0.67 0.67 0.74 0.73 0.60 0.55 0.55 0.56 0.61 0.69 0.95 1.22 1.57 1.76 1.82 1.96 2.25 2.44 2.51 2.54 2.62 2.57 2.39 2.44 2.20 1.98 1.81 1.69 1.76 1.86 1.84 1.81 1.83 1.80 2.01 1.87 1.81 1.90 1.94
0.07 0.08 0.12 0.21 0.31 0.60 0.92 1.27 1.18 0.83 0.73 0.65 0.55 0.49 0.47 0.38 0.38 0.43 0.46 0.51 0.69 0.98 1.25 1.38 1.51 1.74 2.02 2.23 2.20 2.17 2.02 1.99 2.05 2.02 1.87 1.76 1.78 1.70 1.76 1.71 1.78 1.79 1.83 1.89 1.99 1.85 1.80 1.97 1.92
0.08 0.08 0.11 0.16 0.32 0.55 0.84 1.20 1.32 1.05 0.93 0.72 0.64 0.66 0.49 0.37 0.35 0.43 0.42 0.46 0.55 0.70 0.96 1.16 1.34 1.60 1.76 1.88 1.89 1.80 1.80 1.75 1.77 1.72 1.68 1.64 1.71 1.77 1.80 1.77 1.84 1.80 1.76 1.79 1.84 1.65 1.66 1.86 1.92
0.10 0.10 0.11 0.12 0.16 0.37 0.76 1.05 0.96 0.90 0.79 0.66 0.66 0.64 0.55 0.49 0.38 0.35 0.39 0.43 0.56 0.71 0.91 1.17 1.35 1.47 1.57 1.58 1.62 1.68 1.65 1.64 1.67 1.61 1.56 1.59 1.73 1.79 1.74 1.70 1.71 1.70 1.67 1.73 1.76 1.59 1.71 1.83 1.88
0.11 0.11 0.12 0.17 0.16 0.18 0.41 0.77 0.68 0.64 0.67 0.64 0.63 0.63 0.60 0.52 0.48 0.46 0.53 0.54 0.63 0.78 0.90 1.18 1.43 1.47 1.55 1.61 1.74 1.87 1.92 1.94 1.88 1.67 1.55 1.61 1.70 1.76 1.78 1.76 1.75 1.64 1.66 1.83 1.88 1.77 1.84 1.92 1.89